カタログに戻る

KUIPER-00448

運用中通信LEO
NORAD 68871·PAYLOAD·🇺🇸 United States

打ち上げ Apr 28, 2026 から Cape Canaveral Space Force Station

Loading…

次のパス (今後24時間)

TLE

最新Source: CelesTrak SupGP

元期: Sep 14, 2026, 22:10 UTC

1 68871C 26095H   26257.92363426 -.00002974  00000+0 -42387-3 0  2576
2 68871  51.9023 206.1655 0003338  39.2964  71.6916 14.76330227    13

AllMySatでKUIPER-00448をリアルタイム追跡

Download on the App Store